Weather History for Clemson, SC

Change the Weather History Date:

Sunday, October 7, 2012

  Actual Average Record
Temperature  
Mean Temperature 66 °F -  
Max Temperature 73 °F 76 °F 92 °F (1937)
Min Temperature 59 °F 50 °F 33 °F (1935)
Cooling Degree Days 2    
Growing Degree Days 16 (Base 50)    
Moisture  
Dew Point 58 °F    
Average Humidity 76    
Maximum Humidity 88    
Minimum Humidity 59    
Precipitation  
Precipitation 0.00 in - - ()
Sea Level Pressure  
Sea Level Pressure 30.01 in    
Wind  
Wind Speed 3 mph (ENE)    
Max Wind Speed 10 mph    
Max Gust Speed -    
Visibility 10 miles    
Events Rain , Thunderstorm    
Averages and records for this station are not official NWS values.
T = Trace of Precipitation, MM = Missing Value Source: NWS Daily Summary

Daily Weather History Graph

Daily Weather History Graph

Search for Another Location

Airport:

Trip Planner

Search our weather history database for the weather conditions in past years. The results will help you decide how hot, cold, wet, or windy it might be!

Date:

Astronomy

Oct. 07, 2012 Rise Set
Actual Time 7:31 AM EDT 7:06 PM EDT
Civil Twilight 7:05 AM EDT 7:31 PM EDT
Nautical Twilight 6:36 AM EDT 8:01 PM EDT
Astronomical Twilight 6:07 AM EDT 8:30 PM EDT
Moon No Moon Rise 1:57 PM EDT (10/7)
Length of Visible Light 12h 25m
Length of Day
11h 35m
Waning Gibbous, 56% of the Moon is Illuminated
Oct 7
Waning Gibbous
Oct 8
Last Quarter
Oct 15
New
Oct 21
First Quarter
Oct 29
Full

Hourly Weather History & Observations

Time (EDT) Temp. Dew Point Humidity Pressure Visibility Wind Dir Wind Speed Gust Speed Precip Events Conditions
12:54 AM 66.9 °F 57.9 °F 73% 29.94 in 10.0 mi WSW 4.6 mph - N/A   Clear
1:54 AM 64.9 °F 59.0 °F 81% 29.94 in 10.0 mi Calm Calm - N/A   Mostly Cloudy
2:54 AM 66.9 °F 60.1 °F 79% 29.95 in 10.0 mi Calm Calm - N/A   Overcast
3:54 AM 66.0 °F 61.0 °F 84% 29.95 in 10.0 mi Calm Calm - N/A   Overcast
4:54 AM 66.9 °F 60.1 °F 79% 29.94 in 10.0 mi Calm Calm - N/A   Overcast
5:18 AM 66.2 °F 60.8 °F 83% 29.98 in 10.0 mi Calm Calm - 0.00 in Rain , Thunderstorm Light Rain
5:37 AM 64.4 °F 60.8 °F 88% 29.99 in 9.0 mi Calm Calm - 0.00 in Thunderstorm Thunderstorm
5:54 AM 64.9 °F 61.0 °F 87% 29.98 in 7.0 mi NNW 8.1 mph - 0.00 in Thunderstorm Overcast
6:04 AM 64.4 °F 60.8 °F 88% 30.00 in 6.0 mi North 4.6 mph - N/A   Overcast
6:19 AM 64.4 °F 60.8 °F 88% 29.99 in 10.0 mi ENE 4.6 mph - N/A   Overcast
6:26 AM 66.2 °F 60.8 °F 83% 29.99 in 10.0 mi ENE 3.5 mph - N/A   Overcast
6:54 AM 64.9 °F 59.0 °F 81% 29.96 in 10.0 mi ESE 4.6 mph - N/A   Overcast
7:54 AM 64.9 °F 59.0 °F 81% 29.98 in 10.0 mi East 3.5 mph - N/A   Overcast
8:09 AM 64.4 °F 59.0 °F 83% 30.00 in 10.0 mi East 4.6 mph - N/A   Overcast
8:20 AM 64.4 °F 59.0 °F 83% 30.00 in 10.0 mi ENE 3.5 mph - N/A   Overcast
8:54 AM 64.9 °F 60.1 °F 84% 30.00 in 10.0 mi NNE 3.5 mph - N/A   Overcast
9:54 AM 64.9 °F 60.1 °F 84% 30.02 in 10.0 mi ENE 3.5 mph - 0.00 in   Overcast
10:54 AM 66.0 °F 59.0 °F 78% 30.01 in 10.0 mi East 4.6 mph - N/A   Overcast
11:40 AM 66.2 °F 59.0 °F 78% 30.05 in 10.0 mi Calm Calm - N/A   Overcast
11:54 AM 69.1 °F 60.1 °F 73% 30.03 in 10.0 mi NNE 4.6 mph - N/A   Overcast
12:54 PM 69.1 °F 60.1 °F 73% 30.02 in 10.0 mi East 4.6 mph - N/A   Overcast
1:03 PM 69.8 °F 60.8 °F 73% 30.03 in 10.0 mi East 5.8 mph - N/A   Overcast
1:17 PM 69.8 °F 60.8 °F 73% 30.02 in 10.0 mi Variable 3.5 mph - N/A   Mostly Cloudy
1:54 PM 72.0 °F 60.1 °F 66% 29.99 in 10.0 mi Calm Calm - N/A   Overcast
2:34 PM 73.4 °F 60.8 °F 65% 30.00 in 10.0 mi Variable 3.5 mph - N/A   Mostly Cloudy
2:54 PM 72.0 °F 60.1 °F 66% 29.97 in 10.0 mi Calm Calm - N/A   Mostly Cloudy
3:06 PM 71.6 °F 60.8 °F 69% 29.99 in 10.0 mi Calm Calm - N/A   Overcast
3:54 PM 71.1 °F 61.0 °F 70% 29.98 in 10.0 mi NW 4.6 mph - 0.00 in Rain Light Rain
4:54 PM 70.0 °F 55.0 °F 59% 29.98 in 10.0 mi Variable 4.6 mph - 0.00 in   Overcast
5:54 PM 69.1 °F 55.0 °F 61% 30.00 in 10.0 mi Variable 3.5 mph - N/A   Partly Cloudy
6:54 PM 66.9 °F 57.9 °F 73% 30.03 in 10.0 mi ENE 6.9 mph - N/A   Mostly Cloudy
7:27 PM 62.6 °F 53.6 °F 72% 30.06 in 10.0 mi ENE 9.2 mph - N/A   Overcast
7:54 PM 62.1 °F 52.0 °F 70% 30.05 in 10.0 mi East 9.2 mph - N/A   Overcast
8:54 PM 61.0 °F 50.0 °F 67% 30.07 in 10.0 mi East 9.2 mph - N/A   Overcast
9:54 PM 60.1 °F 51.1 °F 72% 30.09 in 10.0 mi East 5.8 mph - N/A   Overcast
10:54 PM 60.1 °F 48.9 °F 67% 30.10 in 10.0 mi ENE 9.2 mph - N/A   Overcast
11:54 PM 59.0 °F 46.0 °F 62% 30.11 in 10.0 mi ENE 10.4 mph - N/A   Overcast